Starlink 3928

operational
NORAD ID: 52606 Int'l Des: 2022-052 Owner: SPXS Country: US Constellation: starlink
LEOCIRCULAR

Starlink 3928について

説明を読み込み中...

リアルタイム位置

3D地球を読み込み中...

次回通過

高度履歴

Altitude vs Time

uPlot chart will show altitude changes over time

軌道要素

1 52606U 22052J 25297.79374380 -.00001017 00000-0 -45819-4 0 9998
2 52606 53.2164 169.1819 0001498 88.6050 271.5113 15.08844075190345
Epoch: Oct 24, 2025 • Age: 8 hours

現在のステータス

高度 540.9 km
速度 7.60 km/s
衛星直下点 30.55°N, 112.35°E
打ち上げ日 May 14, 2022
運用期間 3.4 years
タイプ internet

技術仕様

分類 Payload
質量 297.00 kg
乾燥質量 275.00 kg
総質量 297.00 kg
長さ 0.20 m
直径 2.80 m
スパン 9.00 m
形状 Box + pan
製造者 SPXS
バスタイプ Starlink
フェーズステータス In Orbit
所有者/国 SPXS/US

大規模コンステレーション

Loading constellations...